Theta_e
309 308 307 307 306 306 306 306 307 307 308 308 308 309 309 310 311 311 314 318 315 315 316 315 322 322 326 326 327 329 326 328 327 326 326 328 324 327 327 326 325 325 325 326 327
304 305 306 308 309 309 308 306 305 306 307 308 308 308 308 308 310 314 323 319 318 313 314 314 320 324 327 326 327 327 325 327 326 326 325 326 327 327 325 325 323 326 327 326 326
299 301 302 304 305 305 307 308 309 308 306 305 305 306 307 307 308 317 319 321 319 315 312 311 316 323 327 327 328 326 327 327 326 327 328 327 327 329 324 325 326 324 327 325 326
299 297 297 298 299 301 303 304 305 307 309 309 307 305 304 305 307 315 316 316 317 317 314 310 321 326 325 325 327 327 327 328 327 327 328 326 328 326 326 326 328 328 325 325 327
303 303 302 300 299 298 297 299 302 303 305 307 309 309 305 302 305 315 316 317 316 317 317 311 316 327 325 326 326 325 326 327 327 328 328 328 326 326 327 328 329 328 326 326 326
306 304 303 302 302 302 300 299 298 299 302 307 309 307 308 305 308 311 314 313 310 314 316 313 315 317 319 321 322 326 326 327 328 328 329 327 328 328 328 328 328 327 325 326 326
302 303 303 303 302 302 302 302 301 298 300 304 309 310 311 311 308 308 309 312 312 310 312 316 316 318 318 317 319 319 319 321 323 326 326 328 326 326 326 326 326 326 326 326 325
301 301 301 301 301 301 302 302 302 302 301 301 308 310 311 309 310 312 309 311 312 310 310 312 316 317 318 318 318 317 318 320 321 323 325 324 327 324 325 325 326 326 326 326 326
301 301 301 301 301 301 301 301 302 302 301 302 306 309 310 307 308 312 313 309 311 313 315 312 317 317 317 316 315 315 318 318 319 320 321 321 324 324 326 326 325 326 326 326 325
302 302 302 301 301 301 301 301 304 305 303 304 308 309 307 308 309 310 311 312 308 311 312 313 318 313 311 313 316 315 316 318 320 320 320 322 322 324 325 325 324 325 325 324 325
302 302 302 303 302 302 302 305 308 312 308 309 307 307 308 309 310 311 310 309 307 312 311 315 316 318 317 315 316 316 316 317 318 320 322 322 322 324 324 323 323 324 324 324 325
303 303 302 302 304 304 302 307 308 307 307 308 308 310 309 309 311 311 313 309 311 310 313 314 316 319 318 317 316 317 317 319 320 321 322 321 322 322 322 322 323 324 324 324 324
304 303 303 303 303 303 303 308 306 306 307 308 307 308 308 308 311 311 312 312 309 310 312 313 315 318 320 317 318 317 317 318 319 321 321 321 323 323 323 322 324 325 324 324 325
304 303 302 303 304 304 303 304 305 307 305 305 309 309 309 309 311 310 312 314 313 309 312 313 314 316 318 317 316 318 319 320 320 321 323 322 323 321 321 322 321 323 325 327 326
303 303 302 303 303 303 303 303 307 307 299 304 307 309 312 310 311 310 311 315 315 311 311 312 314 314 316 316 317 318 319 321 321 321 321 322 322 321 320 322 320 319 322 324 325
302 302 302 302 302 302 303 304 307 309 306 305 308 307 309 312 312 313 312 313 315 313 311 311 314 314 315 317 318 317 319 319 318 320 322 322 321 323 321 321 322 321 324 324 324
302 301 301 301 301 301 303 305 306 308 306 306 307 307 306 308 312 313 314 312 314 314 314 313 313 314 315 316 316 315 317 319 318 322 324 321 321 323 322 321 321 321 322 324 324
301 301 301 301 301 302 304 305 306 306 306 307 307 307 309 309 310 314 314 313 313 313 314 314 314 314 315 315 315 316 318 320 323 322 323 321 324 324 321 322 322 323 322 323 323
301 301 303 303 303 304 304 306 305 306 306 306 307 308 308 308 309 311 314 314 313 313 313 314 314 315 315 315 315 315 318 319 319 321 322 322 322 322 321 321 322 321 322 323 323
302 301 304 305 304 304 305 302 305 305 305 306 306 308 307 307 310 310 313 313 316 313 312 314 314 315 315 315 315 314 315 316 314 319 322 323 323 323 323 323 324 323 321 323 324
301 302 304 305 305 304 303 303 304 304 304 306 306 305 307 309 310 310 313 313 313 313 313 312 314 316 315 315 315 312 315 315 317 319 321 322 323 318 320 320 323 322 323 324 324
302 300 303 305 303 302 302 304 304 304 304 305 306 306 306 309 309 308 312 314 311 312 313 313 311 314 316 317 316 315 315 315 317 319 318 321 324 321 318 317 322 322 324 325 325
302 301 303 305 303 302 301 303 304 304 304 304 305 305 306 306 308 308 309 311 310 310 311 313 313 314 315 315 315 314 314 314 315 316 319 321 324 322 320 317 324 323 325 325 326
301 299 302 303 302 303 303 304 304 304 304 303 304 304 305 307 308 308 307 307 308 309 312 309 313 315 315 316 317 317 315 315 316 318 319 320 321 325 324 323 323 324 325 325 326
301 300 302 301 299 300 300 302 303 304 304 303 303 306 305 306 308 309 309 309 308 309 309 307 310 317 315 315 319 319 318 316 317 318 319 320 319 321 324 323 324 325 324 325 326
301 302 302 301 301 300 300 302 304 305 304 304 305 305 305 305 307 308 309 310 309 308 308 306 308 314 320 315 315 316 319 318 319 319 320 319 320 318 323 326 326 325 324 325 326
301 301 300 301 301 298 298 303 303 304 304 305 305 304 304 305 306 306 307 309 309 308 308 308 309 310 318 318 316 316 317 318 320 320 320 320 319 319 324 326 326 326 325 326 326
Wind_Speed
21 23 23 25 26 26 25 26 26 25 25 24 23 23 24 26 26 25 27 22 19 16 22 23 18 24 20 18 13 9 3 7 7 7 8 19 3 19 16 13 10 10 16 20 16
22 23 23 24 25 25 27 27 27 27 27 27 26 23 23 26 29 34 31 24 21 22 23 24 19 24 17 13 11 8 5 10 13 7 7 13 15 27 14 21 13 25 25 20 15
22 22 23 25 27 28 28 28 28 27 27 27 28 25 22 23 28 39 28 24 23 23 30 23 20 27 19 10 14 8 13 24 20 28 16 14 21 34 14 17 26 26 28 12 16
20 23 24 24 25 26 27 28 28 28 28 27 27 27 22 18 9 3 17 12 9 16 27 26 23 17 9 11 26 5 16 29 35 32 20 11 27 21 28 26 40 40 29 12 22
19 18 18 19 22 25 26 27 27 27 25 25 24 25 22 18 27 7 18 11 2 3 21 31 26 22 8 6 11 8 20 30 29 27 29 32 26 26 31 44 44 42 31 18 25
21 21 22 22 22 22 22 23 26 27 23 20 18 19 20 16 35 32 29 30 20 7 13 28 15 23 3 16 13 10 15 26 27 31 33 24 28 29 39 37 38 38 29 19 26
21 22 22 23 24 24 24 24 22 23 26 20 16 15 26 46 21 20 23 39 33 28 24 20 32 16 13 6 20 17 13 18 25 30 21 23 21 21 37 36 35 40 34 28 27
21 22 24 24 25 25 25 24 25 24 21 18 16 14 22 33 26 43 30 18 30 30 28 25 20 36 17 9 7 4 3 10 8 14 22 9 28 24 38 34 35 35 35 31 29
21 22 24 25 25 25 26 28 25 24 23 16 15 14 19 17 30 41 37 41 25 21 19 23 23 19 8 10 8 3 13 13 17 11 6 8 14 22 25 21 25 33 37 33 35
24 25 25 23 24 25 27 27 21 14 13 10 13 7 24 20 19 32 30 37 28 21 26 22 13 6 4 6 14 11 10 16 17 3 11 16 14 22 34 17 23 33 38 35 39
22 24 25 26 24 20 25 25 7 3 5 11 11 17 8 12 8 6 14 25 28 12 12 18 8 19 22 19 13 13 10 16 16 5 7 9 9 17 23 18 21 28 34 36 41
24 22 22 24 25 19 20 8 6 11 15 22 29 36 41 28 13 15 16 17 15 17 9 6 25 17 10 13 15 13 10 17 15 17 4 13 15 17 18 15 25 33 32 35 31
24 23 23 23 24 19 10 10 11 18 8 16 30 25 44 25 18 18 19 15 7 15 20 23 14 15 16 13 16 17 19 20 18 11 7 10 12 17 19 15 24 25 25 22 26
24 22 23 24 17 9 13 6 13 9 4 7 7 10 22 28 13 40 18 13 7 21 18 17 23 13 23 20 19 19 18 19 16 8 9 4 5 6 8 11 7 15 14 22 23
23 22 22 19 22 20 12 14 10 4 5 3 5 4 4 22 9 24 36 26 11 10 11 18 18 25 18 29 19 19 13 13 8 8 6 18 4 6 5 10 11 10 16 18 17
23 23 21 20 20 13 10 12 5 2 8 6 5 12 6 12 26 10 24 27 19 7 10 18 15 18 28 8 18 9 3 4 7 1 9 20 5 11 6 8 6 6 11 9 15
26 24 20 19 20 16 14 8 0 5 6 2 11 19 19 14 13 17 13 22 16 12 15 7 20 6 12 21 13 11 6 3 3 4 8 8 5 15 11 10 12 10 6 12 18
27 23 20 19 15 9 3 1 7 6 10 16 17 20 7 18 10 9 6 17 28 15 12 13 10 27 14 20 12 23 17 6 6 4 4 7 7 11 10 13 23 21 11 18 20
25 23 11 9 3 7 3 4 4 3 7 14 16 9 10 15 10 11 18 11 18 21 10 14 14 3 21 10 19 14 15 13 3 1 2 4 7 9 3 3 3 6 18 22 23
25 21 8 8 6 10 1 4 4 7 14 13 8 7 13 15 11 14 5 8 10 23 1 2 1 8 16 19 19 9 9 9 4 4 4 5 5 6 3 3 5 7 11 19 23
18 8 10 3 10 4 2 5 5 12 13 6 6 10 13 7 8 11 8 10 19 11 8 4 2 5 14 17 21 6 16 2 7 5 6 1 7 8 9 9 12 9 20 27 29
9 3 5 1 2 1 2 3 6 10 13 6 7 11 12 5 5 8 7 10 22 17 8 7 5 12 10 2 18 24 19 20 8 8 2 4 12 4 7 9 9 11 24 27 30
12 5 5 4 1 1 4 5 7 9 6 3 5 9 11 9 5 7 10 18 17 18 13 10 6 4 4 6 4 15 23 16 7 3 7 6 8 1 4 7 16 16 25 28 30
6 4 5 3 2 1 4 4 4 11 10 6 8 8 10 9 6 8 13 14 26 20 15 9 5 15 15 6 5 5 17 18 15 10 11 9 6 3 3 7 7 14 26 31 33
4 3 3 3 4 7 3 4 6 6 3 9 5 4 11 6 8 7 10 14 13 14 11 4 4 6 21 19 6 6 11 20 20 20 15 16 9 7 8 10 15 23 24 27 30
5 4 4 10 9 5 4 3 5 8 4 5 2 7 10 8 6 12 10 5 4 13 10 6 4 10 7 15 24 19 5 19 20 12 10 8 9 8 7 12 11 22 27 29 33
6 7 6 7 4 2 4 3 10 11 8 8 11 7 11 12 10 17 11 11 9 5 5 2 4 10 8 9 9 15 23 7 10 9 14 8 9 7 4 10 14 23 31 33 36
Wind_Direction
286 289 289 286 285 285 285 283 279 275 272 274 275 276 278 281 280 277 267 271 274 267 254 262 226 210 209 211 206 187 123 251 237 192 244 281 2 296 311 281 295 259 250 285 285
290 285 283 284 286 286 284 281 280 280 277 274 274 274 276 281 282 273 271 286 271 258 245 242 225 200 203 214 205 183 176 231 230 211 244 282 302 292 307 297 279 284 285 295 254
304 299 291 285 282 281 283 285 284 279 277 276 275 274 274 280 288 275 281 272 258 236 233 241 226 208 215 200 199 196 222 233 265 251 252 270 286 282 281 289 285 275 291 281 233
323 314 307 301 293 285 280 278 279 280 277 274 275 275 269 263 237 214 190 177 215 228 219 215 206 192 210 208 222 256 232 241 249 264 274 259 272 277 278 274 287 289 281 258 221
336 334 333 324 314 304 295 285 278 277 277 278 275 270 272 244 238 202 200 220 233 260 220 202 200 203 206 205 228 223 248 252 262 270 275 276 267 266 279 283 286 283 277 253 223
334 331 328 327 326 321 315 304 288 278 274 273 278 280 269 249 253 249 236 246 259 267 220 206 211 217 258 241 247 238 260 263 261 262 262 266 273 278 274 278 279 283 265 258 234
331 329 328 324 322 320 320 314 304 285 276 273 271 278 262 247 242 244 247 243 245 247 241 231 219 193 217 310 268 267 271 276 262 262 261 275 277 268 276 279 275 275 268 265 253
325 323 321 321 320 321 319 313 304 298 291 275 265 273 259 257 259 247 234 229 227 238 236 234 245 233 233 248 322 358 286 269 251 237 255 218 269 269 272 272 270 273 274 269 254
323 322 321 318 314 315 316 312 309 294 277 255 256 246 270 263 250 253 242 238 232 224 220 225 235 220 217 223 264 262 257 270 280 218 246 180 278 276 283 268 265 275 276 268 244
326 324 321 317 315 314 310 314 314 298 273 219 231 257 254 250 259 249 242 232 225 231 225 226 214 185 173 162 212 218 238 247 250 207 218 250 257 276 279 290 276 278 276 259 236
324 323 322 322 322 319 310 335 334 331 193 214 218 220 237 17 226 266 234 203 210 212 189 191 198 212 206 209 213 225 238 247 261 231 229 237 250 275 285 291 278 280 268 255 245
329 324 321 320 320 325 304 306 354 327 294 271 263 251 260 274 300 240 220 160 182 200 174 199 227 214 212 214 222 235 253 259 279 267 261 278 274 274 286 278 275 268 262 254 242
328 324 322 319 313 318 289 306 331 332 267 276 250 243 243 247 234 243 195 180 174 193 198 205 226 206 213 218 221 227 232 249 250 292 219 277 280 279 280 291 279 259 260 252 248
326 322 321 321 315 308 311 323 315 322 291 271 218 250 213 208 247 237 217 193 198 203 200 228 222 193 210 228 216 234 222 242 254 274 272 126 286 292 280 289 285 261 230 247 250
327 323 320 318 303 300 321 293 312 162 308 235 202 336 250 194 133 230 216 211 203 160 174 208 204 222 231 220 209 239 228 245 252 254 299 275 271 259 269 285 267 265 245 244 242
328 325 316 313 300 321 321 313 295 224 245 305 78 2 13 235 255 315 178 210 213 209 242 219 212 213 223 210 219 241 237 276 261 209 256 262 164 281 233 227 264 258 283 264 193
330 323 308 299 293 310 308 319 139 228 299 337 350 335 313 319 205 240 207 192 188 191 210 183 229 228 185 219 218 197 118 267 300 203 228 224 189 238 260 244 241 242 232 182 183
335 327 314 301 299 282 300 84 227 259 260 323 346 318 334 12 345 253 233 198 206 193 178 194 214 213 203 206 193 212 192 178 203 187 218 187 234 253 236 253 243 241 232 174 179
336 337 355 359 209 167 177 213 228 298 346 343 338 337 347 353 339 349 224 233 209 196 180 200 231 227 201 198 191 207 206 187 346 199 73 209 286 315 234 269 193 156 169 177 186
340 336 17 354 175 158 115 261 286 324 330 343 324 350 333 338 344 342 300 12 250 218 252 235 197 212 206 200 214 173 153 194 199 220 237 262 251 230 266 215 187 157 166 176 184
345 340 359 112 167 151 205 247 303 300 315 325 327 305 306 333 348 316 316 42 24 352 307 226 155 293 179 199 195 171 229 201 163 182 182 156 258 212 220 190 192 199 178 181 184
349 339 355 2 41 25 269 263 310 295 311 289 240 265 285 287 299 316 297 354 23 8 1 302 213 250 209 220 190 202 206 212 207 212 232 168 257 248 214 197 168 186 182 185 189
340 301 330 216 217 258 273 265 253 289 290 279 300 286 288 306 306 255 301 317 337 359 340 341 262 240 6 272 183 205 205 202 209 93 212 162 257 286 192 187 181 174 182 187 185
351 338 321 356 30 300 306 273 275 287 298 259 284 289 289 311 269 274 286 298 318 338 328 339 262 226 221 206 166 171 197 198 196 211 223 234 262 211 141 153 157 175 186 186 182
11 299 332 311 342 307 273 274 302 323 256 287 308 280 301 299 313 257 285 304 311 317 1 13 269 285 244 232 281 195 180 199 204 209 198 231 208 212 187 183 200 183 179 176 181
9 325 321 290 300 297 294 281 284 319 274 296 247 323 325 299 274 292 324 346 310 310 347 351 288 337 267 224 228 252 256 197 205 204 215 175 216 202 182 112 144 179 172 180 186
324 312 290 291 307 284 244 313 301 301 293 249 296 313 293 281 323 300 220 213 222 257 299 254 355 351 267 226 216 247 238 213 213 195 182 169 214 150 124 171 180 183 187 187 191